Location: �clusier
(49.9361°N, 2.7869°E)
Time: 04:41:14
(UTC+00:00)

Cosmos 2016 Rocket - Pass Details

Date: 25 October 2021
Orbit: 947 x 1000 km, 83.0° (Epoch: 05 December)

Event Time Altitude Azimuth Distance (km) Brightness Sun altitude
Exits shadow 19:48:05 39° 12° (NNE) 1,413 4.8 -30.9°
Drops below altitude 10° 19:51:44 10° 10° (N) 2,692 6.4 -31.5°
Sets 19:54:14 0° 10° (N) 3,637 7.1 -31.9°
